Irkutsk, Russia

5:32 AM +08 on November 18, 2018 (GMT +0800)
Irkutsk

Weather History for UIII - November, 2018

Change the Weather History Date:

Friday, November 9, 2018

  Actual Average Record
Temperature  
Mean Temperature 32 °F -  
Max Temperature 43 °F - - ()
Min Temperature 20 °F - - ()
Degree Days  
Heating Degree Days 34    
Moisture  
Dew Point 22 °F    
Average Humidity 70    
Maximum Humidity 100    
Minimum Humidity 38    
Precipitation  
Precipitation 0.00 in - - ()
Sea Level Pressure  
Sea Level Pressure 29.85 in    
Wind  
Wind Speed 7 mph ()    
Max Wind Speed 16 mph    
Max Gust Speed -    
T = Trace of Precipitation, MM = Missing Value Source: Averaged Metar Reports

Daily Weather History Graph

Daily Weather History Graph

Search for Another Location

Airport or City:

Astronomy

Nov. 09, 2018 Rise Set
Actual Time 8:11 AM +08 5:20 PM +08
Civil Twilight 7:35 AM +08 5:56 PM +08
Nautical Twilight 6:54 AM +08 6:37 PM +08
Astronomical Twilight 6:14 AM +08 7:17 PM +08
Moon 9:31 AM +08 (11/9) 6:38 PM +08 (11/9)
Length of Visible Light 10h 21m
Length of Day
9h 08m
New Moon, 2% of the Moon is Illuminated
Nov 9
New Moon
Nov 15
First Quarter
Nov 23
Full
Nov 30
Last Quarter
Dec 7
New

Hourly Weather History & Observations

Time (+08) Temp. Windchill Dew Point Humidity Pressure Visibility Wind Dir Wind Speed Gust Speed Precip Events Conditions
12:00 AM 24.8 °F 19.2 °F 19.4 °F 80% 29.89 in - ENE 4.5 mph - N/A   Clear
12:30 AM 26.6 °F - 23.0 °F 86% 29.89 in - Variable 2.2 mph - N/A   Clear
1:00 AM 24.8 °F 19.2 °F 23.0 °F 93% 29.89 in - East 4.5 mph - N/A   Clear
1:30 AM 23.0 °F 17.1 °F 19.4 °F 86% 29.89 in - East 4.5 mph - N/A   Clear
2:00 AM 27 °F - 22 °F 75% 30.01 in - SE 4.5 mph - -   Overcast
2:00 AM 23.0 °F 17.1 °F 17.6 °F 80% 29.89 in - East 4.5 mph - N/A   Clear
2:30 AM 23.0 °F 14.9 °F 21.2 °F 93% 29.89 in - ESE 6.7 mph - N/A   Clear
3:00 AM 24.8 °F 19.2 °F 23.0 °F 93% 29.89 in - ENE 4.5 mph - N/A   Clear
3:30 AM 21.2 °F 12.7 °F 19.4 °F 93% 29.89 in - East 6.7 mph - N/A   Clear
4:00 AM 19.4 °F 10.6 °F 15.8 °F 86% 29.89 in - East 6.7 mph - N/A   Clear
4:30 AM 21.2 °F 15.0 °F 19.4 °F 93% 29.89 in - East 4.5 mph - N/A   Clear
5:00 AM 21 °F - 17 °F 76% 30.04 in - East 2.2 mph - -  
5:00 AM 21.2 °F 12.7 °F 19.4 °F 93% 29.89 in - East 6.7 mph - N/A   Clear
5:30 AM 21.2 °F 12.7 °F 19.4 °F 93% 29.89 in - East 6.7 mph - N/A   Clear
6:00 AM 24.8 °F 17.1 °F 23.0 °F 93% 29.89 in - East 6.7 mph - N/A   Clear
6:30 AM 26.6 °F 21.3 °F 24.8 °F 93% 29.89 in - East 4.5 mph - N/A   Clear
7:00 AM 24.8 °F 19.2 °F 23.0 °F 93% 29.89 in - East 4.5 mph - N/A   Clear
7:30 AM 23.0 °F 14.9 °F 23.0 °F 100% 29.89 in - SSE 6.7 mph - N/A   Clear
8:00 AM 29 °F - 27 °F 88% 30.00 in 31 mi SE 6.7 mph - -   Clear
8:00 AM 26.6 °F 21.3 °F 23.0 °F 86% 29.89 in - SE 4.5 mph - N/A   Clear
9:00 AM 28.4 °F 21.4 °F 24.8 °F 86% 29.89 in - SSE 6.7 mph - N/A   Clear
9:30 AM 30.2 °F 20.9 °F 26.6 °F 86% 29.89 in - SSE 11.2 mph - N/A   Clear
10:00 AM 32.0 °F 23.2 °F 26.6 °F 80% 29.86 in - SSE 11.2 mph - N/A   Clear
10:30 AM 33.8 °F 25.4 °F 28.4 °F 81% 29.86 in - SSE 11.2 mph - N/A   Clear
11:00 AM 34 °F - 28 °F 72% 29.95 in 31 mi SE 6.7 mph - -  
11:00 AM 35.6 °F 26.8 °F 28.4 °F 75% 29.86 in - SSE 13.4 mph - N/A   Clear
11:30 AM 37.4 °F 28.3 °F 28.4 °F 70% 29.86 in - SSE 15.7 mph - N/A   Clear
12:00 PM 37.4 °F 29.1 °F 28.4 °F 70% 29.83 in - SSE 13.4 mph - N/A   Clear
12:30 PM 39.2 °F 30.6 °F 26.6 °F 61% 29.83 in - SSE 15.7 mph - N/A   Clear
1:00 PM 41.0 °F 32.9 °F 26.6 °F 57% 29.83 in - SSE 15.7 mph - N/A   Clear
1:30 PM 41.0 °F 32.9 °F 24.8 °F 53% 29.80 in - SSE 15.7 mph - N/A   Clear
2:00 PM 41.0 °F 32.9 °F 24.8 °F 53% 29.80 in - SSE 15.7 mph - N/A   Clear
2:30 PM 41.0 °F 32.9 °F 24.8 °F 53% 29.80 in - SSE 15.7 mph - N/A   Clear
3:00 PM 41.0 °F 33.6 °F 23.0 °F 49% 29.80 in - SSE 13.4 mph - N/A   Clear
3:30 PM 41.0 °F 33.6 °F 23.0 °F 49% 29.77 in - SSE 13.4 mph - N/A   Clear
4:00 PM 41.0 °F 33.6 °F 21.2 °F 45% 29.77 in - SSE 13.4 mph - N/A   Clear
4:30 PM 39.2 °F 31.3 °F 21.2 °F 49% 29.77 in - SSE 13.4 mph - N/A   Clear
5:00 PM 39 °F - 22 °F 38% 29.85 in 31 mi SSE 6.7 mph - -  
5:00 PM 37.4 °F 29.1 °F 21.2 °F 52% 29.77 in - SSE 13.4 mph - N/A   Clear
5:30 PM 35.6 °F 27.7 °F 21.2 °F 56% 29.77 in - SSE 11.2 mph - N/A   Clear
6:00 PM 33.8 °F 25.4 °F 19.4 °F 56% 29.77 in - SSE 11.2 mph - N/A   Clear
6:30 PM 32.0 °F 25.7 °F 19.4 °F 60% 29.77 in - SE 6.7 mph - N/A   Clear
7:30 PM 32.0 °F 24.3 °F 17.6 °F 55% 29.77 in - ESE 8.9 mph - N/A   Clear
8:00 PM 34 °F - 21 °F 47% 29.87 in - ESE 4.5 mph - -  
8:00 PM 32.0 °F 25.7 °F 17.6 °F 55% 29.77 in - SE 6.7 mph - N/A   Clear
8:30 PM 32.0 °F 25.7 °F 15.8 °F 51% 29.77 in - East 6.7 mph - N/A   Clear
9:00 PM 32.0 °F 25.7 °F 15.8 °F 51% 29.77 in - ESE 6.7 mph - N/A   Clear
9:30 PM 28.4 °F 19.9 °F 15.8 °F 59% 29.77 in - East 8.9 mph - N/A   Clear
10:00 PM 30.2 °F 25.5 °F 15.8 °F 55% 29.77 in - ESE 4.5 mph - N/A   Clear
10:30 PM 30.2 °F 25.5 °F 15.8 °F 55% 29.77 in - SSE 4.5 mph - N/A   Clear
11:00 PM 34 °F - 19 °F 41% 29.86 in - SE 8.9 mph - -  
11:00 PM 30.2 °F 25.5 °F 17.6 °F 60% 29.74 in - ESE 4.5 mph - N/A   Clear
11:30 PM 32.0 °F 27.6 °F 15.8 °F 51% 29.74 in - SSE 4.5 mph - N/A   Clear